owner,sensor,date,latitude,longitude,vertical_datum,sea_water_temperature,qcFlag
Anadarko,ioos:station:wmo:42377:1,2024-02-26T19:34:00Z,27.2925,-90.9681,21.3,21.8,11111222
Anadarko,ioos:station:wmo:42377:1,2024-02-26T19:54:00Z,27.2925,-90.9681,21.3,21.8,11111222
Anadarko,ioos:station:wmo:42377:1,2024-02-26T20:14:00Z,27.2925,-90.9681,21.3,21.8,11111222
Anadarko,ioos:station:wmo:42377:1,2024-02-26T20:55:00Z,27.2925,-90.9681,21.3,21.8,11111222
Anadarko,ioos:station:wmo:42377:1,2024-02-26T21:15:00Z,27.2925,-90.9681,21.3,21.8,11111222
Anadarko,ioos:station:wmo:42377:1,2024-02-26T21:35:00Z,27.2925,-90.9681,21.3,21.8,11111222
Anadarko,ioos:station:wmo:42377:1,2024-02-26T21:55:00Z,27.2925,-90.9681,21.3,21.8,11111222
Anadarko,ioos:station:wmo:42377:1,2024-02-26T23:08:00Z,27.2925,-90.9681,21.3,21.8,11111222
Anadarko,ioos:station:wmo:42377:1,2024-02-26T23:28:00Z,27.2925,-90.9681,21.3,21.8,11111222
Anadarko,ioos:station:wmo:42377:1,2024-02-26T23:48:00Z,27.2925,-90.9681,21.3,21.8,11111222
Anadarko,ioos:station:wmo:42377:1,2024-02-27T00:08:00Z,27.2925,-90.9681,21.3,21.8,11111222
Anadarko,ioos:station:wmo:42377:1,2024-02-27T00:28:00Z,27.2925,-90.9681,21.3,21.8,11111222
Anadarko,ioos:station:wmo:42377:1,2024-02-27T00:48:00Z,27.2925,-90.9681,21.3,21.9,11111222
Anadarko,ioos:station:wmo:42377:1,2024-02-27T01:08:00Z,27.2925,-90.9681,21.3,21.9,11111222
Anadarko,ioos:station:wmo:42377:1,2024-02-27T01:28:00Z,27.2925,-90.9681,21.3,21.9,11111222
Anadarko,ioos:station:wmo:42377:1,2024-02-27T01:48:00Z,27.2925,-90.9681,21.3,21.9,11111222
Anadarko,ioos:station:wmo:42377:1,2024-02-27T02:08:00Z,27.2925,-90.9681,21.3,21.9,11111222
Anadarko,ioos:station:wmo:42377:1,2024-02-27T02:28:00Z,27.2925,-90.9681,21.3,21.9,11111222
Anadarko,ioos:station:wmo:42377:1,2024-02-27T02:48:00Z,27.2925,-90.9681,21.3,21.9,11111222
Anadarko,ioos:station:wmo:42377:1,2024-02-27T03:08:00Z,27.2925,-90.9681,21.3,21.9,11111222
Anadarko,ioos:station:wmo:42377:1,2024-02-27T03:28:00Z,27.2925,-90.9681,21.3,21.9,11111222
Anadarko,ioos:station:wmo:42377:1,2024-02-27T03:48:00Z,27.2925,-90.9681,21.3,22.0,11111222
Anadarko,ioos:station:wmo:42377:1,2024-02-27T04:08:00Z,27.2925,-90.9681,21.3,22.0,11111222
Anadarko,ioos:station:wmo:42377:1,2024-02-27T04:28:00Z,27.2925,-90.9681,21.3,22.0,11111222
Anadarko,ioos:station:wmo:42377:1,2024-02-27T04:48:00Z,27.2925,-90.9681,21.3,22.0,11111222
Anadarko,ioos:station:wmo:42377:1,2024-02-27T05:08:00Z,27.2925,-90.9681,21.3,22.0,11111222
Anadarko,ioos:station:wmo:42377:1,2024-02-27T05:28:00Z,27.2925,-90.9681,21.3,22.0,11111222
Anadarko,ioos:station:wmo:42377:1,2024-02-27T05:48:00Z,27.2925,-90.9681,21.3,22.1,11111222
Anadarko,ioos:station:wmo:42377:1,2024-02-27T06:08:00Z,27.2925,-90.9681,21.3,22.1,11111222
Anadarko,ioos:station:wmo:42377:1,2024-02-27T06:28:00Z,27.2925,-90.9681,21.3,22.1,11111222
Anadarko,ioos:station:wmo:42377:1,2024-02-27T06:48:00Z,27.2925,-90.9681,21.3,22.1,11111222
Anadarko,ioos:station:wmo:42377:1,2024-02-27T07:08:00Z,27.2925,-90.9681,21.3,22.2,11111222
Anadarko,ioos:station:wmo:42377:1,2024-02-27T07:28:00Z,27.2925,-90.9681,21.3,22.2,11111222
Anadarko,ioos:station:wmo:42377:1,2024-02-27T07:48:00Z,27.2925,-90.9681,21.3,22.2,11111222
Anadarko,ioos:station:wmo:42377:1,2024-02-27T08:08:00Z,27.2925,-90.9681,21.3,22.2,11111222
Anadarko,ioos:station:wmo:42377:1,2024-02-27T08:28:00Z,27.2925,-90.9681,21.3,22.3,11111222
Anadarko,ioos:station:wmo:42377:1,2024-02-27T08:48:00Z,27.2925,-90.9681,21.3,22.3,11111222
Anadarko,ioos:station:wmo:42377:1,2024-02-27T09:08:00Z,27.2925,-90.9681,21.3,22.3,11111222
Anadarko,ioos:station:wmo:42377:1,2024-02-27T09:28:00Z,27.2925,-90.9681,21.3,22.3,11111222
Anadarko,ioos:station:wmo:42377:1,2024-02-27T09:48:00Z,27.2925,-90.9681,21.3,22.3,11111222
Anadarko,ioos:station:wmo:42377:1,2024-02-27T10:08:00Z,27.2925,-90.9681,21.3,22.3,11111222
Anadarko,ioos:station:wmo:42377:1,2024-02-27T10:28:00Z,27.2925,-90.9681,21.3,22.3,11111222
Anadarko,ioos:station:wmo:42377:1,2024-02-27T10:48:00Z,27.2925,-90.9681,21.3,22.3,11111222
Anadarko,ioos:station:wmo:42377:1,2024-02-27T11:08:00Z,27.2925,-90.9681,21.3,22.3,11111222
Anadarko,ioos:station:wmo:42377:1,2024-02-27T11:28:00Z,27.2925,-90.9681,21.3,22.2,11111222
Anadarko,ioos:station:wmo:42377:1,2024-02-27T11:48:00Z,27.2925,-90.9681,21.3,22.3,11111222
Anadarko,ioos:station:wmo:42377:1,2024-02-27T12:08:00Z,27.2925,-90.9681,21.3,22.2,11111222
Anadarko,ioos:station:wmo:42377:1,2024-02-27T12:28:00Z,27.2925,-90.9681,21.3,22.1,11111222
Anadarko,ioos:station:wmo:42377:1,2024-02-27T12:48:00Z,27.2925,-90.9681,21.3,22.2,11111222
Anadarko,ioos:station:wmo:42377:1,2024-02-27T13:08:00Z,27.2925,-90.9681,21.3,22.3,11111222
Anadarko,ioos:station:wmo:42377:1,2024-02-27T13:28:00Z,27.2925,-90.9681,21.3,22.3,11111222
Anadarko,ioos:station:wmo:42377:1,2024-02-27T13:48:00Z,27.2925,-90.9681,21.3,22.3,11111222
Anadarko,ioos:station:wmo:42377:1,2024-02-27T14:08:00Z,27.2925,-90.9681,21.3,22.3,11111222
Anadarko,ioos:station:wmo:42377:1,2024-02-27T14:28:00Z,27.2925,-90.9681,21.3,22.3,11111222
Anadarko,ioos:station:wmo:42377:1,2024-02-27T14:48:00Z,27.2925,-90.9681,21.3,22.4,11111222
Anadarko,ioos:station:wmo:42377:1,2024-02-27T15:08:00Z,27.2925,-90.9681,21.3,22.4,11111222
Anadarko,ioos:station:wmo:42377:1,2024-02-27T15:28:00Z,27.2925,-90.9681,21.3,22.4,11111222
Anadarko,ioos:station:wmo:42377:1,2024-02-27T15:48:00Z,27.2925,-90.9681,21.3,22.4,11111222
Anadarko,ioos:station:wmo:42377:1,2024-02-27T16:08:00Z,27.2925,-90.9681,21.3,22.4,11111222
Anadarko,ioos:station:wmo:42377:1,2024-02-27T16:28:00Z,27.2925,-90.9681,21.3,22.4,11111222
Anadarko,ioos:station:wmo:42377:1,2024-02-27T16:48:00Z,27.2925,-90.9681,21.3,22.4,11111222
Anadarko,ioos:station:wmo:42377:1,2024-02-27T17:08:00Z,27.2925,-90.9681,21.3,22.4,11111222
Anadarko,ioos:station:wmo:42377:1,2024-02-27T17:28:00Z,27.2925,-90.9681,21.3,22.4,11111222
Anadarko,ioos:station:wmo:42377:1,2024-02-27T17:48:00Z,27.2925,-90.9681,21.3,22.4,11111222
Anadarko,ioos:station:wmo:42377:1,2024-02-27T19:17:00Z,27.2925,-90.9681,21.3,22.5,11111222
Anadarko,ioos:station:wmo:42377:1,2024-02-27T19:37:00Z,27.2925,-90.9681,21.3,22.5,11111222
Anadarko,ioos:station:wmo:42377:1,2024-02-27T19:57:00Z,27.2925,-90.9681,21.3,22.5,11111222
Anadarko,ioos:station:wmo:42377:1,2024-02-27T20:17:00Z,27.2925,-90.9681,21.3,22.6,11111222
Anadarko,ioos:station:wmo:42377:1,2024-02-27T20:37:00Z,27.2925,-90.9681,21.3,22.6,11111222
Anadarko,ioos:station:wmo:42377:1,2024-02-27T20:57:00Z,27.2925,-90.9681,21.3,22.6,11111222
Anadarko,ioos:station:wmo:42377:1,2024-02-27T21:19:00Z,27.2925,-90.9681,21.3,22.6,11111222
Anadarko,ioos:station:wmo:42377:1,2024-02-27T21:39:00Z,27.2925,-90.9681,21.3,22.5,11111222
Anadarko,ioos:station:wmo:42377:1,2024-02-27T21:59:00Z,27.2925,-90.9681,21.3,22.6,11111222
Anadarko,ioos:station:wmo:42377:1,2024-02-27T22:19:00Z,27.2925,-90.9681,21.3,22.6,11111222
Anadarko,ioos:station:wmo:42377:1,2024-02-27T22:39:00Z,27.2925,-90.9681,21.3,22.5,11111222
Anadarko,ioos:station:wmo:42377:1,2024-02-27T22:59:00Z,27.2925,-90.9681,21.3,22.5,11111222
Anadarko,ioos:station:wmo:42377:1,2024-02-27T23:19:00Z,27.2925,-90.9681,21.3,22.6,11111222
Anadarko,ioos:station:wmo:42377:1,2024-02-27T23:39:00Z,27.2925,-90.9681,21.3,22.6,11111222
Anadarko,ioos:station:wmo:42377:1,2024-02-27T23:59:00Z,27.2925,-90.9681,21.3,22.5,11111222
Anadarko,ioos:station:wmo:42377:1,2024-02-28T00:19:00Z,27.2925,-90.9681,21.3,22.4,11111222
Anadarko,ioos:station:wmo:42377:1,2024-02-28T00:39:00Z,27.2925,-90.9681,21.3,22.5,11111222
Anadarko,ioos:station:wmo:42377:1,2024-02-28T00:59:00Z,27.2925,-90.9681,21.3,22.5,11111222
Anadarko,ioos:station:wmo:42377:1,2024-02-28T01:19:00Z,27.2925,-90.9681,21.3,22.6,11111222
Anadarko,ioos:station:wmo:42377:1,2024-02-28T01:39:00Z,27.2925,-90.9681,21.3,22.5,11111222
Anadarko,ioos:station:wmo:42377:1,2024-02-28T01:59:00Z,27.2925,-90.9681,21.3,22.6,11111222
Anadarko,ioos:station:wmo:42377:1,2024-02-28T02:19:00Z,27.2925,-90.9681,21.3,22.4,11111222
Anadarko,ioos:station:wmo:42377:1,2024-02-28T02:39:00Z,27.2925,-90.9681,21.3,22.4,11111222
Anadarko,ioos:station:wmo:42377:1,2024-02-28T02:59:00Z,27.2925,-90.9681,21.3,22.3,11111222
Anadarko,ioos:station:wmo:42377:1,2024-02-28T03:19:00Z,27.2925,-90.9681,21.3,22.3,11111222
Anadarko,ioos:station:wmo:42377:1,2024-02-28T03:39:00Z,27.2925,-90.9681,21.3,22.2,11111222
Anadarko,ioos:station:wmo:42377:1,2024-02-28T03:59:00Z,27.2925,-90.9681,21.3,22.3,11111222
Anadarko,ioos:station:wmo:42377:1,2024-02-28T04:19:00Z,27.2925,-90.9681,21.3,22.5,11111222
Anadarko,ioos:station:wmo:42377:1,2024-02-28T04:39:00Z,27.2925,-90.9681,21.3,22.6,11111222
Anadarko,ioos:station:wmo:42377:1,2024-02-28T04:59:00Z,27.2925,-90.9681,21.3,22.5,11111222
Anadarko,ioos:station:wmo:42377:1,2024-02-28T05:19:00Z,27.2925,-90.9681,21.3,22.5,11111222
Anadarko,ioos:station:wmo:42377:1,2024-02-28T05:39:00Z,27.2925,-90.9681,21.3,22.5,11111222
Anadarko,ioos:station:wmo:42377:1,2024-02-28T05:59:00Z,27.2925,-90.9681,21.3,22.4,11111222
Anadarko,ioos:station:wmo:42377:1,2024-02-28T06:19:00Z,27.2925,-90.9681,21.3,22.4,11111222
Anadarko,ioos:station:wmo:42377:1,2024-02-28T06:39:00Z,27.2925,-90.9681,21.3,22.5,11111222
Anadarko,ioos:station:wmo:42377:1,2024-02-28T06:59:00Z,27.2925,-90.9681,21.3,22.5,11111222
Anadarko,ioos:station:wmo:42377:1,2024-02-28T07:19:00Z,27.2925,-90.9681,21.3,22.6,11111222
Anadarko,ioos:station:wmo:42377:1,2024-02-28T07:39:00Z,27.2925,-90.9681,21.3,22.6,11111222
Anadarko,ioos:station:wmo:42377:1,2024-02-28T07:59:00Z,27.2925,-90.9681,21.3,22.6,11111222
Anadarko,ioos:station:wmo:42377:1,2024-02-28T08:19:00Z,27.2925,-90.9681,21.3,22.6,11111222
Anadarko,ioos:station:wmo:42377:1,2024-02-28T08:39:00Z,27.2925,-90.9681,21.3,22.6,11111222
Anadarko,ioos:station:wmo:42377:1,2024-02-28T08:59:00Z,27.2925,-90.9681,21.3,22.6,11111222
Anadarko,ioos:station:wmo:42377:1,2024-02-28T09:19:00Z,27.2925,-90.9681,21.3,22.6,11111222
Anadarko,ioos:station:wmo:42377:1,2024-02-28T09:39:00Z,27.2925,-90.9681,21.3,22.6,11111222
Anadarko,ioos:station:wmo:42377:1,2024-02-28T09:59:00Z,27.2925,-90.9681,21.3,22.6,11111222
Anadarko,ioos:station:wmo:42377:1,2024-02-28T10:19:00Z,27.2925,-90.9681,21.3,22.5,11111222
Anadarko,ioos:station:wmo:42377:1,2024-02-28T10:39:00Z,27.2925,-90.9681,21.3,22.5,11111222
Anadarko,ioos:station:wmo:42377:1,2024-02-28T10:59:00Z,27.2925,-90.9681,21.3,22.5,11111222
Anadarko,ioos:station:wmo:42377:1,2024-02-28T11:19:00Z,27.2925,-90.9681,21.3,22.5,11111222
Anadarko,ioos:station:wmo:42377:1,2024-02-28T11:39:00Z,27.2925,-90.9681,21.3,22.5,11111222
Anadarko,ioos:station:wmo:42377:1,2024-02-28T11:59:00Z,27.2925,-90.9681,21.3,22.4,11111222
Anadarko,ioos:station:wmo:42377:1,2024-02-28T12:19:00Z,27.2925,-90.9681,21.3,22.4,11111222
Anadarko,ioos:station:wmo:42377:1,2024-02-28T12:39:00Z,27.2925,-90.9681,21.3,22.4,11111222
Anadarko,ioos:station:wmo:42377:1,2024-02-28T12:59:00Z,27.2925,-90.9681,21.3,22.4,11111222
Anadarko,ioos:station:wmo:42377:1,2024-02-28T15:16:00Z,27.2925,-90.9681,21.3,22.0,11111222
Anadarko,ioos:station:wmo:42377:1,2024-02-28T15:36:00Z,27.2925,-90.9681,21.3,22.0,11111222
Anadarko,ioos:station:wmo:42377:1,2024-02-28T15:56:00Z,27.2925,-90.9681,21.3,22.0,11111222
Anadarko,ioos:station:wmo:42377:1,2024-02-28T16:16:00Z,27.2925,-90.9681,21.3,21.9,11111222
Anadarko,ioos:station:wmo:42377:1,2024-02-28T16:36:00Z,27.2925,-90.9681,21.3,21.9,11111222
Anadarko,ioos:station:wmo:42377:1,2024-02-28T16:56:00Z,27.2925,-90.9681,21.3,21.9,11111222
Anadarko,ioos:station:wmo:42377:1,2024-02-28T17:16:00Z,27.2925,-90.9681,21.3,21.9,11111222
Anadarko,ioos:station:wmo:42377:1,2024-02-28T17:36:00Z,27.2925,-90.9681,21.3,21.9,11111222
Anadarko,ioos:station:wmo:42377:1,2024-02-28T17:56:00Z,27.2925,-90.9681,21.3,21.9,11111222
Anadarko,ioos:station:wmo:42377:1,2024-02-28T18:16:00Z,27.2925,-90.9681,21.3,21.9,11111222
Anadarko,ioos:station:wmo:42377:1,2024-02-28T18:36:00Z,27.2925,-90.9681,21.3,21.9,11111222
Anadarko,ioos:station:wmo:42377:1,2024-02-28T18:56:00Z,27.2925,-90.9681,21.3,21.9,11111222
Anadarko,ioos:station:wmo:42377:1,2024-02-28T19:16:00Z,27.2925,-90.9681,21.3,21.9,11111222
Anadarko,ioos:station:wmo:42377:1,2024-02-28T19:36:00Z,27.2925,-90.9681,21.3,21.9,11111222
Anadarko,ioos:station:wmo:42377:1,2024-02-28T19:55:00Z,27.2925,-90.9681,21.3,22.0,11111222
Anadarko,ioos:station:wmo:42377:1,2024-02-28T20:15:00Z,27.2925,-90.9681,21.3,22.0,11111222
Anadarko,ioos:station:wmo:42377:1,2024-02-28T20:35:00Z,27.2925,-90.9681,21.3,22.0,11111222
Anadarko,ioos:station:wmo:42377:1,2024-02-28T20:55:00Z,27.2925,-90.9681,21.3,22.0,11111222
Anadarko,ioos:station:wmo:42377:1,2024-02-28T21:15:00Z,27.2925,-90.9681,21.3,22.0,11111222
Anadarko,ioos:station:wmo:42377:1,2024-02-28T21:35:00Z,27.2925,-90.9681,21.3,22.0,11111222
Anadarko,ioos:station:wmo:42377:1,2024-02-28T21:55:00Z,27.2925,-90.9681,21.3,22.0,11111222
Anadarko,ioos:station:wmo:42377:1,2024-02-28T22:15:00Z,27.2925,-90.9681,21.3,22.0,11111222
Anadarko,ioos:station:wmo:42377:1,2024-02-28T22:35:00Z,27.2925,-90.9681,21.3,22.0,11111222
Anadarko,ioos:station:wmo:42377:1,2024-02-28T22:55:00Z,27.2925,-90.9681,21.3,22.0,11111222
Anadarko,ioos:station:wmo:42377:1,2024-02-28T23:15:00Z,27.2925,-90.9681,21.3,22.0,11111222
Anadarko,ioos:station:wmo:42377:1,2024-02-28T23:35:00Z,27.2925,-90.9681,21.3,22.0,11111222
Anadarko,ioos:station:wmo:42377:1,2024-02-28T23:55:00Z,27.2925,-90.9681,21.3,22.0,11111222
Anadarko,ioos:station:wmo:42377:1,2024-02-29T00:15:00Z,27.2925,-90.9681,21.3,22.0,11111222
Anadarko,ioos:station:wmo:42377:1,2024-02-29T00:35:00Z,27.2925,-90.9681,21.3,22.0,11111222
Anadarko,ioos:station:wmo:42377:1,2024-02-29T00:55:00Z,27.2925,-90.9681,21.3,22.0,11111222
Anadarko,ioos:station:wmo:42377:1,2024-02-29T01:15:00Z,27.2925,-90.9681,21.3,22.0,11111222
Anadarko,ioos:station:wmo:42377:1,2024-02-29T01:35:00Z,27.2925,-90.9681,21.3,22.1,11111222
Anadarko,ioos:station:wmo:42377:1,2024-02-29T01:55:00Z,27.2925,-90.9681,21.3,22.0,11111222
Anadarko,ioos:station:wmo:42377:1,2024-02-29T02:15:00Z,27.2925,-90.9681,21.3,22.0,11111222
Anadarko,ioos:station:wmo:42377:1,2024-02-29T02:35:00Z,27.2925,-90.9681,21.3,22.1,11111222
Anadarko,ioos:station:wmo:42377:1,2024-02-29T02:55:00Z,27.2925,-90.9681,21.3,22.1,11111222
Anadarko,ioos:station:wmo:42377:1,2024-02-29T03:15:00Z,27.2925,-90.9681,21.3,22.0,11111222
Anadarko,ioos:station:wmo:42377:1,2024-02-29T03:35:00Z,27.2925,-90.9681,21.3,22.0,11111222
Anadarko,ioos:station:wmo:42377:1,2024-02-29T03:55:00Z,27.2925,-90.9681,21.3,22.0,11111222
Anadarko,ioos:station:wmo:42377:1,2024-02-29T04:15:00Z,27.2925,-90.9681,21.3,22.1,11111222
Anadarko,ioos:station:wmo:42377:1,2024-02-29T04:35:00Z,27.2925,-90.9681,21.3,22.0,11111222
Anadarko,ioos:station:wmo:42377:1,2024-02-29T04:55:00Z,27.2925,-90.9681,21.3,22.1,11111222
Anadarko,ioos:station:wmo:42377:1,2024-02-29T05:15:00Z,27.2925,-90.9681,21.3,22.2,11111222
Anadarko,ioos:station:wmo:42377:1,2024-02-29T05:35:00Z,27.2925,-90.9681,21.3,22.4,11111222
Anadarko,ioos:station:wmo:42377:1,2024-02-29T05:55:00Z,27.2925,-90.9681,21.3,22.4,11111222
Anadarko,ioos:station:wmo:42377:1,2024-02-29T06:15:00Z,27.2925,-90.9681,21.3,22.3,11111222
Anadarko,ioos:station:wmo:42377:1,2024-02-29T06:35:00Z,27.2925,-90.9681,21.3,22.6,11111222
Anadarko,ioos:station:wmo:42377:1,2024-02-29T06:55:00Z,27.2925,-90.9681,21.3,23.2,11111222
Anadarko,ioos:station:wmo:42377:1,2024-02-29T07:15:00Z,27.2925,-90.9681,21.3,22.3,11111222
Anadarko,ioos:station:wmo:42377:1,2024-02-29T07:35:00Z,27.2925,-90.9681,21.3,22.3,11111222
Anadarko,ioos:station:wmo:42377:1,2024-02-29T07:55:00Z,27.2925,-90.9681,21.3,22.3,11111222
Anadarko,ioos:station:wmo:42377:1,2024-02-29T08:15:00Z,27.2925,-90.9681,21.3,22.3,11111222
Anadarko,ioos:station:wmo:42377:1,2024-02-29T08:35:00Z,27.2925,-90.9681,21.3,22.3,11111222
Anadarko,ioos:station:wmo:42377:1,2024-02-29T08:55:00Z,27.2925,-90.9681,21.3,22.3,11111222
Anadarko,ioos:station:wmo:42377:1,2024-02-29T09:15:00Z,27.2925,-90.9681,21.3,23.4,11111222
Anadarko,ioos:station:wmo:42377:1,2024-02-29T09:35:00Z,27.2925,-90.9681,21.3,23.9,11111222
Anadarko,ioos:station:wmo:42377:1,2024-02-29T09:55:00Z,27.2925,-90.9681,21.3,23.6,11111222
Anadarko,ioos:station:wmo:42377:1,2024-02-29T10:15:00Z,27.2925,-90.9681,21.3,23.4,11111222
Anadarko,ioos:station:wmo:42377:1,2024-02-29T10:35:00Z,27.2925,-90.9681,21.3,23.3,11111222
Anadarko,ioos:station:wmo:42377:1,2024-02-29T10:55:00Z,27.2925,-90.9681,21.3,23.5,11111222
Anadarko,ioos:station:wmo:42377:1,2024-02-29T11:15:00Z,27.2925,-90.9681,21.3,24.1,11111222
Anadarko,ioos:station:wmo:42377:1,2024-02-29T11:35:00Z,27.2925,-90.9681,21.3,24.2,11111222
Anadarko,ioos:station:wmo:42377:1,2024-02-29T11:55:00Z,27.2925,-90.9681,21.3,24.4,11111222
Anadarko,ioos:station:wmo:42377:1,2024-02-29T12:15:00Z,27.2925,-90.9681,21.3,24.5,11111222
Anadarko,ioos:station:wmo:42377:1,2024-02-29T12:35:00Z,27.2925,-90.9681,21.3,24.7,11111222
Anadarko,ioos:station:wmo:42377:1,2024-02-29T12:55:00Z,27.2925,-90.9681,21.3,24.8,11111222
Anadarko,ioos:station:wmo:42377:1,2024-02-29T13:15:00Z,27.2925,-90.9681,21.3,24.8,11111222
Anadarko,ioos:station:wmo:42377:1,2024-02-29T13:35:00Z,27.2925,-90.9681,21.3,24.9,11111222
Anadarko,ioos:station:wmo:42377:1,2024-02-29T13:55:00Z,27.2925,-90.9681,21.3,24.9,11111222
Anadarko,ioos:station:wmo:42377:1,2024-02-29T14:15:00Z,27.2925,-90.9681,21.3,24.9,11111222
Anadarko,ioos:station:wmo:42377:1,2024-02-29T14:35:00Z,27.2925,-90.9681,21.3,25.0,11111222
Anadarko,ioos:station:wmo:42377:1,2024-02-29T14:55:00Z,27.2925,-90.9681,21.3,25.0,11111222
Anadarko,ioos:station:wmo:42377:1,2024-02-29T15:15:00Z,27.2925,-90.9681,21.3,25.1,11111222
Anadarko,ioos:station:wmo:42377:1,2024-02-29T15:35:00Z,27.2925,-90.9681,21.3,25.1,11111222
Anadarko,ioos:station:wmo:42377:1,2024-02-29T15:55:00Z,27.2925,-90.9681,21.3,25.1,11111222
Anadarko,ioos:station:wmo:42377:1,2024-02-29T16:15:00Z,27.2925,-90.9681,21.3,25.0,11111222
Anadarko,ioos:station:wmo:42377:1,2024-02-29T16:35:00Z,27.2925,-90.9681,21.3,25.0,11111222
Anadarko,ioos:station:wmo:42377:1,2024-02-29T16:55:00Z,27.2925,-90.9681,21.3,24.9,11111222
Anadarko,ioos:station:wmo:42377:1,2024-02-29T17:15:00Z,27.2925,-90.9681,21.3,24.9,11111222
Anadarko,ioos:station:wmo:42377:1,2024-02-29T17:35:00Z,27.2925,-90.9681,21.3,24.9,11111222
Anadarko,ioos:station:wmo:42377:1,2024-02-29T17:55:00Z,27.2925,-90.9681,21.3,24.9,11111222
Anadarko,ioos:station:wmo:42377:1,2024-02-29T18:15:00Z,27.2925,-90.9681,21.3,24.9,11111222
Anadarko,ioos:station:wmo:42377:1,2024-02-29T18:35:00Z,27.2925,-90.9681,21.3,24.9,11111222
Anadarko,ioos:station:wmo:42377:1,2024-02-29T18:55:00Z,27.2925,-90.9681,21.3,24.9,11111222
Anadarko,ioos:station:wmo:42377:1,2024-02-29T19:15:00Z,27.2925,-90.9681,21.3,24.9,11111222
Anadarko,ioos:station:wmo:42377:1,2024-02-29T19:35:00Z,27.2925,-90.9681,21.3,24.9,11111222
Anadarko,ioos:station:wmo:42377:1,2024-02-29T19:55:00Z,27.2925,-90.9681,21.3,24.9,11111222
Anadarko,ioos:station:wmo:42377:1,2024-02-29T20:15:00Z,27.2925,-90.9681,21.3,24.9,11111222
Anadarko,ioos:station:wmo:42377:1,2024-02-29T20:35:00Z,27.2925,-90.9681,21.3,24.9,11111222
Anadarko,ioos:station:wmo:42377:1,2024-02-29T20:55:00Z,27.2925,-90.9681,21.3,24.9,11111222
Anadarko,ioos:station:wmo:42377:1,2024-02-29T21:15:00Z,27.2925,-90.9681,21.3,25.0,11111222
Anadarko,ioos:station:wmo:42377:1,2024-02-29T21:35:00Z,27.2925,-90.9681,21.3,25.1,11111222
Anadarko,ioos:station:wmo:42377:1,2024-02-29T21:55:00Z,27.2925,-90.9681,21.3,25.1,11111222
